TimeMST,TemperatureF,Dew PointF,Humidity,Sea Level PressureIn,VisibilityMPH,Wind Direction,Wind SpeedMPH,Gust SpeedMPH,PrecipitationIn,Events,Conditions,WindDirDegrees,DateUTC
12:04 AM,26.6,26.6,100,29.63,0.2,NW,5.8,-,N/A,Fog,Light Freezing Fog,320,2012-12-01 07:04:00
12:11 AM,28.4,26.6,93,29.63,1.2,NW,5.8,-,N/A,,Partly Cloudy,320,2012-12-01 07:11:00
12:14 AM,28.4,26.6,93,29.62,3.0,NW,5.8,-,N/A,,Partly Cloudy,310,2012-12-01 07:14:00
12:53 AM,30.0,28.0,92,29.71,10.0,Calm,Calm,-,N/A,,Clear,0,2012-12-01 07:53:00
1:35 AM,26.6,26.6,100,29.65,7.0,SW,3.5,-,N/A,,Scattered Clouds,230,2012-12-01 08:35:00
1:43 AM,28.4,26.6,93,29.65,7.0,Calm,Calm,-,N/A,,Mostly Cloudy,0,2012-12-01 08:43:00
1:50 AM,28.4,26.6,93,29.66,8.0,Calm,Calm,-,N/A,,Mostly Cloudy,0,2012-12-01 08:50:00
1:53 AM,28.9,28.0,96,29.73,8.0,Calm,Calm,-,N/A,,Overcast,0,2012-12-01 08:53:00
2:38 AM,30.2,28.4,93,29.69,1.5,Calm,Calm,-,N/A,,Overcast,0,2012-12-01 09:38:00
2:43 AM,30.2,28.4,93,29.69,0.8,Calm,Calm,-,N/A,,Overcast,0,2012-12-01 09:43:00
2:53 AM,30.0,28.9,96,29.76,0.5,Calm,Calm,-,N/A,Fog,Light Freezing Fog,0,2012-12-01 09:53:00
3:00 AM,30.2,30.2,100,29.70,1.2,Calm,Calm,-,N/A,,Overcast,0,2012-12-01 10:00:00
3:04 AM,30.2,30.2,100,29.70,3.0,Calm,Calm,-,N/A,,Overcast,0,2012-12-01 10:04:00
3:18 AM,30.2,30.2,100,29.70,1.8,WSW,3.5,-,N/A,,Overcast,250,2012-12-01 10:18:00
3:28 AM,30.2,30.2,100,29.71,1.0,Calm,Calm,-,N/A,,Overcast,0,2012-12-01 10:28:00
3:40 AM,30.2,30.2,100,29.71,1.5,WNW,3.5,-,N/A,,Overcast,290,2012-12-01 10:40:00
3:48 AM,30.2,30.2,100,29.72,2.5,North,3.5,-,N/A,,Overcast,10,2012-12-01 10:48:00
3:49 AM,30.9,30.9,100,29.78,2.5,NNE,3.5,-,N/A,,Overcast,20,2012-12-01 10:49:00
3:56 AM,30.2,28.4,93,29.72,5.0,NNE,4.6,-,N/A,,Overcast,20,2012-12-01 10:56:00
4:33 AM,28.4,26.6,93,29.73,8.0,NNE,8.1,-,N/A,,Overcast,30,2012-12-01 11:33:00
4:53 AM,28.9,25.0,85,29.80,8.0,NNE,8.1,-,N/A,,Overcast,20,2012-12-01 11:53:00
5:53 AM,26.1,23.0,88,29.83,7.0,NE,8.1,-,N/A,,Overcast,40,2012-12-01 12:53:00
6:53 AM,25.0,21.9,88,29.84,6.0,NE,8.1,-,N/A,,Overcast,40,2012-12-01 13:53:00
7:19 AM,24.8,21.2,86,29.77,6.0,NE,8.1,-,N/A,,Overcast,50,2012-12-01 14:19:00
7:53 AM,24.8,21.2,86,29.78,5.0,East,4.6,-,N/A,,Overcast,90,2012-12-01 14:53:00
8:22 AM,24.8,21.2,86,29.77,2.0,ENE,3.5,-,N/A,,Overcast,60,2012-12-01 15:22:00
8:45 AM,24.8,23.0,93,29.79,1.5,East,5.8,-,N/A,,Overcast,80,2012-12-01 15:45:00
8:49 AM,24.8,23.0,93,29.78,0.8,East,6.9,-,N/A,,Overcast,80,2012-12-01 15:49:00
8:53 AM,24.1,23.0,96,29.86,0.8,East,5.8,-,N/A,,Overcast,80,2012-12-01 15:53:00
9:53 AM,25.0,24.1,96,29.86,1.0,ENE,8.1,-,N/A,,Overcast,70,2012-12-01 16:53:00
10:04 AM,24.8,24.8,100,29.78,0.5,East,8.1,-,N/A,Fog,Light Freezing Fog,80,2012-12-01 17:04:00
10:21 AM,24.8,24.8,100,29.77,1.2,ENE,9.2,-,N/A,,Overcast,70,2012-12-01 17:21:00
10:27 AM,24.8,24.8,100,29.77,0.8,East,8.1,-,N/A,,Overcast,80,2012-12-01 17:27:00
10:45 AM,26.6,24.8,93,29.76,1.2,ENE,9.2,-,N/A,,Overcast,60,2012-12-01 17:45:00
10:53 AM,25.0,24.1,96,29.84,1.5,East,6.9,-,N/A,,Overcast,90,2012-12-01 17:53:00
11:13 AM,26.6,24.8,93,29.75,2.0,East,8.1,-,N/A,,Overcast,80,2012-12-01 18:13:00
11:53 AM,26.1,24.1,92,29.83,2.5,East,8.1,-,N/A,,Overcast,100,2012-12-01 18:53:00
12:10 PM,26.6,24.8,93,29.75,3.0,East,9.2,-,N/A,,Overcast,100,2012-12-01 19:10:00
12:49 PM,26.6,24.8,93,29.73,2.5,ENE,9.2,-,N/A,,Overcast,70,2012-12-01 19:49:00
12:53 PM,27.0,24.1,89,29.81,2.5,East,9.2,-,N/A,,Overcast,80,2012-12-01 19:53:00
1:19 PM,26.6,24.8,93,29.72,3.0,East,9.2,-,N/A,,Overcast,80,2012-12-01 20:19:00
1:53 PM,27.0,25.0,92,29.79,3.0,East,9.2,-,N/A,,Overcast,80,2012-12-01 20:53:00
2:04 PM,26.6,24.8,93,29.71,2.5,East,9.2,-,N/A,,Overcast,80,2012-12-01 21:04:00
2:19 PM,28.4,24.8,86,29.71,3.0,East,9.2,-,N/A,,Overcast,80,2012-12-01 21:19:00
2:28 PM,28.4,24.8,86,29.71,3.0,East,8.1,-,N/A,,Overcast,80,2012-12-01 21:28:00
2:53 PM,28.0,25.0,88,29.78,4.0,ENE,6.9,-,N/A,,Overcast,70,2012-12-01 21:53:00
3:35 PM,28.4,26.6,93,29.72,2.5,East,6.9,-,N/A,,Overcast,90,2012-12-01 22:35:00
3:45 PM,28.4,26.6,93,29.71,1.8,East,6.9,-,N/A,,Overcast,80,2012-12-01 22:45:00
3:53 PM,28.0,27.0,96,29.78,2.0,ENE,8.1,-,N/A,,Overcast,70,2012-12-01 22:53:00
4:16 PM,28.4,26.6,93,29.71,1.8,East,5.8,-,N/A,,Overcast,80,2012-12-01 23:16:00
4:23 PM,28.4,26.6,93,29.71,2.5,East,6.9,-,N/A,,Overcast,90,2012-12-01 23:23:00
4:33 PM,28.4,26.6,93,29.70,1.2,East,5.8,-,N/A,,Overcast,80,2012-12-01 23:33:00
4:41 PM,28.4,26.6,93,29.70,0.8,ENE,4.6,-,N/A,,Overcast,70,2012-12-01 23:41:00
4:53 PM,28.0,27.0,96,29.78,0.5,ENE,6.9,-,N/A,Fog,Light Freezing Fog,70,2012-12-01 23:53:00
5:53 PM,28.0,27.0,96,29.78,0.2,East,6.9,-,N/A,Fog,Light Freezing Fog,80,2012-12-02 00:53:00
6:53 PM,28.0,27.0,96,29.78,0.8,East,6.9,-,N/A,,Mist,80,2012-12-02 01:53:00
6:58 PM,28.4,26.6,93,29.70,1.2,ENE,5.8,-,N/A,,Overcast,70,2012-12-02 01:58:00
7:14 PM,26.6,26.6,100,29.70,2.0,ENE,3.5,-,N/A,,Overcast,70,2012-12-02 02:14:00
7:39 PM,24.8,23.0,93,29.69,3.0,ENE,4.6,-,N/A,,Scattered Clouds,70,2012-12-02 02:39:00
7:53 PM,24.1,21.9,91,29.78,2.5,ENE,3.5,-,N/A,,Clear,70,2012-12-02 02:53:00
8:21 PM,24.8,21.2,86,29.69,3.0,ENE,5.8,-,N/A,,Clear,70,2012-12-02 03:21:00
8:53 PM,21.0,19.0,92,29.77,3.0,ENE,4.6,-,N/A,,Clear,60,2012-12-02 03:53:00
9:53 PM,19.9,18.0,92,29.77,4.0,East,3.5,-,N/A,,Clear,80,2012-12-02 04:53:00
10:53 PM,18.0,16.0,92,29.78,5.0,Calm,Calm,-,N/A,,Partly Cloudy,0,2012-12-02 05:53:00
11:53 PM,19.0,16.0,88,29.78,4.0,Calm,Calm,-,N/A,,Clear,0,2012-12-02 06:53:00